Flag for Poland Weather past 2 weeks in Lublin, Poland

Now
80 °F

Overcast.


Feels Like: 82 °F
Forecast: 65 / 88 °F
Wind: 1 mph from South

Location: Lublin Radawiec

Current Time: Jul 30, 2014 at 8:05:22 PM

Latest Report: Jul 30, 2014 at 7:00 PM


Visibility: 19 mi

Pressure: 29.79 "Hg

Humidity: 57%

Dew point: 64 °F

Location of LublinLocation

Historic Weather in Lublin — Graph

°F

Lublin temperature yesterday

Maximum temperature yesterday: 86 °F (at 3:00 PM)
Minimum temperature yesterday: 67 °F (at 6:00 AM)
Average temperature yesterday: 74 °F

Past Weeks' High & Low Weather Summary

 TemperatureHumidityPressure
High86 °F (Jul 29, 3:00 PM)96% (Jul 16, 2:00 AM)30.13 "Hg (Jul 16, 2:00 AM)
Low56 °F (Jul 20, 3:00 AM)33% (Jul 29, 3:00 PM)29.78 "Hg (Jul 30, 6:00 PM)
Average71 °F72%29.98 "Hg
* Reported Jul 15 6:00 PM — Jul 30 6:00 PM, Lublin, Weather by CustomWeather, © 2014

Note: Actual official high and low records may vary slightly from our data, if they occured in-between our weather recording intervals... More about our weather records

Advertising

Lublin weather history for previous 24 hours

 ConditionsComfort  
Time TempWeatherWind HumidityBarometerVisibility
6:00 PM
Jul 30
82 °FOvercast.2 mph54%29.78 "Hg16 mi
5:00 PM81 °FScattered clouds.3 mph55%29.79 "Hg14 mi
4:00 PM81 °FScattered clouds.5 mph53%29.80 "Hg19 mi
3:00 PM80 °FPartly sunny.3 mph56%29.81 "Hg16 mi
2:00 PM79 °FOvercast.5 mph58%29.83 "Hg19 mi
1:00 PM79 °FOvercast.6 mph58%29.83 "Hg19 mi
12:00 PM79 °FOvercast.5 mph58%29.83 "Hg18 mi
11:00 AM78 °FOvercast.5 mph59%29.83 "Hg19 mi
10:00 AM77 °FPartly sunny.3 mph63%29.83 "Hg17 mi
9:00 AM74 °FPartly sunny.6 mph67%29.83 "Hg17 mi
8:00 AM70 °FPartly sunny.5 mph76%29.83 "Hg19 mi
7:00 AM67 °FOvercast.3 mph85%29.84 "Hg16 mi
6:00 AM64 °FOvercast.2 mph91%29.84 "Hg11 mi
5:00 AM64 °FPartly sunny.2 mph91%29.83 "Hg11 mi
4:00 AM65 °FOvercast.3 mph89%29.83 "Hg12 mi
3:00 AM66 °FOvercast.2 mph87%29.84 "Hg14 mi
2:00 AM67 °FOvercast.2 mph84%29.85 "Hg16 mi
1:00 AM67 °FOvercast.1 mph84%29.85 "Hg12 mi
12:00 AM68 °FLight rain. Overcast.1 mph83%29.85 "Hg9 mi
11:00 PM
Jul 29
69 °FLight rain. Overcast.2 mph80%29.85 "Hg12 mi
10:00 PM70 °FPassing clouds.3 mph72%29.84 "Hg19 mi
9:00 PM71 °FPassing clouds.2 mph70%29.83 "Hg22 mi
8:00 PM77 °FPartly sunny.5 mph56%29.81 "Hg19 mi
Weather by CustomWeather, © 2014

See weather overviewHow to use our weather pages